STARLINK-4394, 53467

Orbit data source: Space-Track

STARLINK-4394, 53467 is a payload satellite owned by SpaceX/Seattle (US) in SSO that was launched on Fri, 12 Aug 2022 UTC via an FALCON 9 launch vehicle from the Air Force Western Test Range (AFWTR). Payload-class satellites include a variety of spacecraft equipped with specific instruments for various scientific and technological missions. These include communications satellites like Starlink; space stations such as the ISS; scientific satellites like the Hubble; Earth observation satellites from companies like Planet Labs, Umbra, and HawkEye 360; GPS; miniature CubeSats for education and research; and military/defense satellites.

Loading next visibility...
Identifier
53467, 2022-099C
Orbit
SSO
Country
Flag of USUS
Related business
Manufacturer
SpaceX/Seattle
Mission
Operational Commercial Communications
Bus & Motor
STARLINK, Unknown motor
Mass
300 kg wet, ~275 kg dry
Launch date (UTC)
2022-08-12 (3 years ago)
Launch vehicle
FALCON 9
Launch site
Air Force Western Test Range (AFWTR)
Object type
Payload
Rocket body
Debris
Shape & HBR
Box + 1 Pan, 10.1 m
Radar Cross Section
13.562 m², Large (>1 m²)

Expand to show TLE details & history
Last TLE update: 13 hours ago

TLE from 13 hours ago
0 STARLINK-4394
1 53467U 22099C   25346.88870653 -.00004521  00000-0 -30917-3 0  9999
2 53467  97.5988 105.7128 0001722  88.3207 271.8217 15.05668968182987
Epoch: 2025-12-12T21:19Z
TLE epoch observation values (Epoch: 2025-12-12T21:19:44.244Z)
Latitude
-0.00001°
Longitude
63.95459°
Altitude
552.481 km
Speed
7.586 km/s
True Right ascension
07h 02m 51s
True Declination
0° 00' 00"
Sunlit
Object was in full shadow at epoch
Visualization orbit readout
Latitude
Unknown
Longitude
Unknown
Altitude
Unknown
Speed
Unknown
Apparent Right ascension
Unknown
Apparent Declination
Unknown
Sunlit
N/A
Visualization observer readout
Local Sidereal Time
09:16:23
Azimuth
Unknown
Elevation
Unknown
Doppler factor
Unknown
Orbital elements
Apogee altitude
547.639 km
Perigee altitude
545.254 km
Semi-major axis
6,924.583 km
Eccentricity
0.00017
Inclination
97.5988°
RAAN
105.7128°
Arg. of periapsis
88.3207°
True anomaly
271.80198°
Mean anomaly
271.8217°
Eccentric anomaly
271.81184°
Mean motion
3.76663 °/min
Orbital period
95.58 mins
BSTAR
-0.00030917
Loading maneuver chart data...
Computing Atmospheric mass density...
Loading historical data...
Loading historical data...
Loading historical data...
Loading historical data...
Loading historical data...
Loading historical data...
Loading historical data...

Documentation

Showing up to 5 results
|